FENGYUN 1C DEB

Satellite information

Favourite Embed

Satellite Type and Status

DEBRISIN ORBIT

Key statistics

Satellite FENGYUN 1C DEB at a glance.

Uptime

9616

Days in orbit

Revolutions

≈ 14.1

Per day

Orbit

SSO

Sun Synchronous Orbit

Inclination

98.3

Latest

Satellite identification and parameters

Extended collection of information and parameters for FENGYUN 1C DEB.

Object identification

Identified? True

Debris? True

Object name: FENGYUN 1C DEB

International designator: 1999-025DCJ

Object number (NORAD): 33601

Object ID (CCSDS): 33601

Country: PEOPLES REPUBLIC OF CHINA (PRC)

Current information (Y/N): Y

RCS size: SMALL

Orbital parameters

Period: 102.328 minutes

Inclination: 98.3087 deg

SMA: 7246.967 km

Apoapsis: 984.848 km

Periapsis: 752.816 km

RAAN: 49.5706 deg

Eccentricy: 0.01600891

Argument of periapsis: 72.1532 deg

Mean anomaly: 289.7028 deg

Mean motion: 14.0724058 rev/day

Mean motion (dot): 0.00004741 rev/day2

B* drag term: 0.0025348628 1/REarth

Two-line elements (TLE)

Creation date: Sept. 2, 2025, 11:42 p.m.

Reference frame: TEME

Reference center: EARTH

Epoch: Sept. 2, 2025, 9:29 a.m. UTC

TLE line 0: 0 FENGYUN 1C DEB

TLE line 1: 1 33601U 99025DCJ 25245.39553050 .00004741 00000-0 25349-2 0 9997

TLE line 2: 2 33601 98.3087 49.5706 0160089 72.1532 289.7028 14.07240580892540

Live tracking on map

Real-time ground track for satellite FENGYUN 1C DEB.

In-orbit conjunctions

A list of the most updated potential collisions computed for object FENGYUN 1C DEB.

Target Orbit TCA Probability of collision Miss distance Type
IRS P2 SSO 2024-10-23 07:32:02 0.0002037108 416.0 (m) PAYLOAD
IRIDIUM 38 LEO 2024-10-21 12:39:45 0.0002697452 886.0 (m) PAYLOAD

Associated space launch

Chinese polar orbiting meteorological satellite

FENGYUN 1C DEB was lifted into orbit during the mission ‘Long March 4B | Feng Yun 1C’, on board a Long March 4B space rocket.

The launch took place on May 10, 1999, 1:33 a.m. from Launch Complex 7.

For more information about the launch, click the button.

Launch to space Long March 4B | Feng Yun 1C
Long March 4B | Feng Yun 1C

Agency: N/A

Status: Launch Successful

Launch date: May 10, 1999, 1:33 a.m. UTC

Rocket: Long March 4B

Launch pad: Launch Complex 7

Location: Taiyuan Satellite Launch Center, People's Republic of China

...

Latest news about this satellite

There are no fresh news available about this satellite. Check back as we update our databases every day.


Newsletter sign-up

Weekly statistics, charts and insights to help you stay on top of the space industry.